Regional Weather Roundup
Issued by NWS Green Bay, WI

Home | Current Version | Previous Version | Graphics & Text | Print | Product List | Glossary Off
Versions: 1 2 3 4 5 6 7 8 9 10 11 12 13 14 15 16 17 18 19 20 21 22 23 24 25 26 27 28 29 30 31 32 33 34 35 36 37 38 39 40 41 42 43 44 45 46 47 48 49 50

000
ASUS43 KGRB 311200
RWRGRB

NORTH-CENTRAL AND NORTHEAST WISCONSIN REGIONAL WEATHER ROUNDUP
NATIONAL WEATHER SERVICE GREEN BAY WI
700 AM CDT FRI JUL 31 2015

WIZ005-009-010>012-018-019-311300-
NORTH CENTRAL WISCONSIN

CITY           SKY/WX    TMP DP  RH WIND       PRES   REMARKS
IRONWOOD       SUNNY     63  55  77 W12       29.90R
MANITOWISH WTR NOT AVBL
ARBOR VITAE    NOT AVBL
EAGLE RIVER    NOT AVBL
LAND O LAKES   NOT AVBL
RHINELANDER    PTSUNNY   61  55  81 W9        29.95R
PHILLIPS       PTSUNNY   61  56  84 W6        29.96R
ANTIGO         NOT AVBL
TOMAHAWK       NOT AVBL
MERRILL        NOT AVBL
$$

WIZ013-073-311300-
NORTHEAST WISCONSIN

CITY           SKY/WX    TMP DP  RH WIND       PRES   REMARKS
IRON MOUNTAIN  MOSUNNY   63  56  78 W8        29.88R
MARINETTE      SUNNY     64  55  72 W6        29.88S
$$

WIZ017-030-035>037-045-311300-
CENTRAL WISCONSIN

CITY           SKY/WX    TMP DP  RH WIND       PRES   REMARKS
MEDFORD        NOT AVBL
WAUSAU         SUNNY     64  56  75 NW15      29.95R
MOSINEE        SUNNY     63  57  82 W10       29.98R
MARSHFIELD     SUNNY     64  56  75 W8        29.99R
WISC RAPIDS    SUNNY     65  57  75 W8        30.00R
STEVENS POINT  NOT AVBL
WAUPACA        NOT AVBL
SHAWANO        NOT AVBL
CLINTONVILLE   SUNNY     64  55  72 W7        29.93S
$$

WIZ038-039-048-051-311300-
FOX VALLEY

CITY           SKY/WX    TMP DP  RH WIND       PRES   REMARKS
NWS GREEN BAY  SUNNY     67  59  75 W12       29.93R
APPLETON       MOSUNNY   64  57  77 SW8       29.96R
OSHKOSH        SUNNY     68  58  70 W6        29.96R
FOND DU LAC    SUNNY     66  58  75 SW8       29.97S
$$

WIZ022-050-052-311300-
EAST CENTRAL WISCONSIN

CITY           SKY/WX    TMP DP  RH WIND       PRES   REMARKS
STURGEON BAY   SUNNY     66  57  72 W9        29.92S
MANITOWOC      NOT AVBL
SHEBOYGAN      SUNNY     67  59  75 W8        29.96R
$$

LMZ563-521-522-541>543-311300-
LAKESHORE

STATION/POSITION TIME  TEMP    WIND        PRES    VSBY  WAVE
                       AIR SEA DIR/SP/G                  HT/PER
                 (UTC) (F)     (DEG/KT/KT) (MB)    (MI)  (FT/S)
SHEBOYGAN LKSHOR 1100   68     250/ 10/ 12 1014.0F
KEWAUNEE LKSHORE 1100   66     290/  5/  7 1012.3F
ALGOMA MARINA    1112          270/  2/  7   N/A
NORTHPORT PIER   1100   68     260/  5/ 11 1011.2S
N MID LAKE BUOY  1050   68 68  250/ 12/ 14 1010.4S         2/ 3
S GREEN BAY BUOY 1100   64 66  250/ 12/ 12 1013.8S
SISTER BAY LKSHO 1129   70     290/ 16/ 19   N/A
CHAMBERS ISLAND  1100   65     230/  6/ 10 1011.5S
MENOMINEE LKSHOR 1100   65     240/ 10/ 12 1012.5F
$$


USA.gov is the U.S. government's official web portal to all federal, state and local government web resources and services.